Content
SEND FEEDBACK

Daily
Averages
Monthly
Summary
United States of America

MANGILAO, GUAM


Home > North America > United States > Guam
Elevation: 60 feet     Latitude: 13 27N     Longitude: 144 49E

WEATHER
 
SELECT A DAY
Number of Records: 342,702;   Date Range: 1/1/95 - 9/21/14
 
SHARE

PRINT THIS DATA

[ ← Previous Day ]
WEATHER ALMANAC - JUNE 19, 2013
[ Next Day → ]
[ °C ]   °F
Weather ElementAverageHighLow
Temperature83 °F88.3 °F (10:55 am)80.1 °F (5:55 am)
Dewpoint78 °F80.6 °F (2:58 pm)76.1 °F (2:55 am)
Humidity85.1 %94 % (1:26 am)70 % (1:11 pm)
Barometer29.83 in29.88 in (9:55 pm)29.79 in (2:51 pm)
Wind Speed14.8 mph19.6 mph (12:28 pm)
Wind Gust24.2 mph (2:51 pm)
Weather ElementAverage
Visibility9.8 mi
Wind DirectionENE (76.3 °)

Weather ElementTotal
Precipitation---
Cooling Degree Days19.2 (Base 65)
Growing Degree Days34.2 (Base 50)
Averaged from 72 records on June 19, 2013
WEATHER CONDITIONS BREAKOUT
WIND DIRECTION BREAKOUT
WEATHER BY HOUR - JUNE 19, 2013
[ °C ]   °F
Local TimeTemperatureDewpointHumidityBarometerVisibilityWind DirectionWind SpeedGust SpeedPrecipitationEventsConditions
12:16 AM80.6 °F77.0 °F89 %29.85 in10.0 miENE (70°)13.8 mphMostly Cloudy
12:21 AM80.6 °F77.0 °F89 %29.85 in10.0 miEast (80°)12.7 mphScattered Clouds
12:44 AM80.6 °F77.0 °F89 %29.85 in10.0 miEast (80°)12.7 mphMostly Cloudy
12:55 AM80.8 °F77.0 °F88 %29.84 in10.0 miEast (80°)11.5 mphMostly Cloudy
1:04 AM80.6 °F77.0 °F89 %29.84 in10.0 miEast (90°)12.7 mphScattered Clouds
1:23 AM80.6 °F77.0 °F89 %29.84 in10.0 miENE (70°)11.5 mphMostly Cloudy
1:26 AM80.6 °F78.8 °F94 %29.84 in10.0 miENE (70°)17.3 mphScattered Clouds
1:27 AM80.6 °F77.0 °F89 %29.84 in10.0 miENE (70°)16.1 mphMostly Cloudy
1:29 AM80.6 °F77.0 °F89 %29.84 in10.0 miENE (70°)13.8 mphScattered Clouds
1:55 AM80.6 °F77.4 °F90 %29.84 in10.0 miENE (70°)13.8 mphPartly Cloudy
2:55 AM80.4 °F76.1 °F87 %29.83 in10.0 miENE (70°)16.1 mphClear
3:55 AM80.4 °F76.3 °F87 %29.83 in10.0 miEast (80°)11.5 mphScattered Clouds
3:58 AM80.6 °F77.0 °F89 %29.84 in10.0 miEast (80°)12.7 mphMostly Cloudy
4:07 AM80.6 °F77.0 °F89 %29.84 in10.0 miENE (70°)15.0 mphScattered Clouds
4:22 AM80.6 °F77.0 °F89 %29.83 in10.0 miEast (80°)11.5 mphMostly Cloudy
4:39 AM80.6 °F77.0 °F89 %29.83 in10.0 miEast (90°)11.5 mphMostly Cloudy
4:55 AM80.8 °F77.9 °F91 %29.83 in10.0 miENE (70°)13.8 mphMostly Cloudy
5:00 AM80.6 °F78.8 °F94 %29.83 in10.0 miEast (80°)12.7 mphMostly Cloudy
5:03 AM80.6 °F77.0 °F89 %29.83 in10.0 miEast (80°)11.5 mphScattered Clouds
5:55 AM80.1 °F77.2 °F91 %29.84 in10.0 miEast (80°)11.5 mph18.4 mphScattered Clouds
6:10 AM80.6 °F77.0 °F89 %29.84 in10.0 miEast (80°)10.4 mphMostly Cloudy
6:17 AM80.6 °F77.0 °F89 %29.84 in10.0 miENE (70°)12.7 mphMostly Cloudy
6:21 AM80.6 °F77.0 °F89 %29.85 in10.0 miENE (70°)15.0 mphMostly Cloudy
6:23 AM80.6 °F77.0 °F89 %29.85 in10.0 miEast (80°)13.8 mphMostly Cloudy
6:26 AM80.6 °F77.0 °F89 %29.85 in10.0 miEast (80°)13.8 mphScattered Clouds
6:55 AM81.1 °F76.3 °F85 %29.86 in10.0 miEast (80°)11.5 mphPartly Cloudy
7:55 AM82.9 °F77.2 °F83 %29.87 in10.0 miEast (80°)10.4 mphPartly Cloudy
8:55 AM85.3 °F76.8 °F76 %29.87 in10.0 miENE (70°)16.1 mphScattered Clouds
9:55 AM86.7 °F78.1 °F75 %29.86 in10.0 miEast (80°)15.0 mphPartly Cloudy
10:55 AM88.3 °F78.4 °F72 %29.86 in10.0 miENE (70°)16.1 mph20.7 mphPartly Cloudy
11:37 AM86.0 °F78.8 °F79 %29.85 in10.0 miENE (70°)16.1 mphMostly Cloudy
11:39 AM86.0 °F78.8 °F79 %29.85 in10.0 miEast (80°)15.0 mphScattered Clouds
11:55 AM88.3 °F78.6 °F73 %29.84 in10.0 miENE (70°)16.1 mph21.9 mphScattered Clouds
12:07 PM86.0 °F78.8 °F79 %29.83 in10.0 miENE (70°)15.0 mphLight Drizzle
12:09 PM86.0 °F78.8 °F79 %29.83 in10.0 miEast (80°)16.1 mphLight Drizzle
12:17 PM86.0 °F78.8 °F79 %29.83 in10.0 miENE (70°)17.3 mph20.7 mphMostly Cloudy
12:28 PM87.8 °F78.8 °F75 %29.83 in10.0 miENE (70°)19.6 mphMostly Cloudy
12:55 PM88.3 °F78.1 °F72 %29.82 in10.0 miENE (70°)17.3 mph0.00 inScattered Clouds
1:09 PM87.8 °F78.8 °F75 %29.81 in10.0 miENE (70°)18.4 mphMostly Cloudy
1:11 PM87.8 °F77.0 °F70 %29.81 in10.0 miENE (70°)17.3 mphScattered Clouds
1:55 PM87.6 °F77.2 °F71 %29.80 in10.0 miENE (70°)18.4 mphClear
2:51 PM86.0 °F78.8 °F79 %29.79 in8.0 miEast (80°)18.4 mph24.2 mphRainLight Rain
2:55 PM84.6 °F80.2 °F87 %29.80 in8.0 miEast (80°)16.1 mph24.2 mph0.00 inLight Drizzle
2:58 PM84.2 °F80.6 °F89 %29.80 in8.0 miENE (70°)18.4 mph24.2 mphLight Drizzle
3:00 PM84.2 °F80.6 °F89 %29.80 in9.0 miENE (70°)19.6 mphRainLight Rain
3:01 PM84.2 °F80.6 °F89 %29.80 in10.0 miENE (70°)18.4 mphMostly Cloudy
3:03 PM84.2 °F78.8 °F84 %29.80 in10.0 miEast (80°)19.6 mphMostly Cloudy
3:05 PM84.2 °F78.8 °F84 %29.80 in10.0 miEast (80°)17.3 mphMostly Cloudy
3:07 PM84.2 °F78.8 °F84 %29.79 in10.0 miENE (70°)18.4 mphMostly Cloudy
3:25 PM86.0 °F78.8 °F79 %29.79 in10.0 miENE (70°)17.3 mphRainLight Rain
3:37 PM84.2 °F78.8 °F84 %29.79 in10.0 miENE (70°)16.1 mphMostly Cloudy
3:48 PM86.0 °F78.8 °F79 %29.80 in10.0 miEast (80°)18.4 mphScattered Clouds
3:55 PM86.0 °F78.3 °F78 %29.80 in10.0 miEast (80°)17.3 mph0.00 inScattered Clouds
4:55 PM85.8 °F78.1 °F78 %29.80 in10.0 miENE (70°)17.3 mphScattered Clouds
4:56 PM86.0 °F78.8 °F79 %29.80 in10.0 miENE (70°)18.4 mphMostly Cloudy
5:07 PM84.2 °F77.0 °F79 %29.80 in10.0 miEast (90°)13.8 mphMostly Cloudy
5:34 PM84.2 °F78.8 °F84 %29.82 in10.0 miEast (80°)11.5 mphMostly Cloudy
5:37 PM82.4 °F78.8 °F89 %29.82 in10.0 miENE (70°)10.4 mphMostly Cloudy
5:42 PM84.2 °F78.8 °F84 %29.82 in10.0 miEast (90°)11.5 mphMostly Cloudy
5:45 PM82.4 °F78.8 °F89 %29.82 in7.0 miEast (100°)10.4 mphRainLight Rain
5:49 PM82.4 °F78.8 °F89 %29.82 in6.0 miEast (100°)9.2 mphRainLight Rain
5:55 PM81.1 °F79.3 °F94 %29.83 in10.0 miEast (90°)12.7 mph0.00 inMostly Cloudy
6:03 PM80.6 °F78.8 °F94 %29.83 in10.0 miEast (80°)13.8 mphMostly Cloudy
6:08 PM80.6 °F77.0 °F89 %29.83 in10.0 miEast (80°)18.4 mphScattered Clouds
6:55 PM81.5 °F77.0 °F86 %29.84 in10.0 miEast (80°)16.1 mphPartly Cloudy
7:55 PM81.5 °F77.0 °F86 %29.86 in10.0 miENE (70°)17.3 mphPartly Cloudy
8:55 PM81.3 °F77.2 °F87 %29.87 in10.0 miEast (80°)15.0 mphClear
9:55 PM81.0 °F77.4 °F89 %29.88 in10.0 miENE (70°)15.0 mphClear
10:55 PM80.8 °F77.7 °F90 %29.88 in10.0 miENE (70°)13.8 mphScattered Clouds
11:53 PM80.6 °F78.8 °F94 %29.88 in10.0 miENE (70°)12.7 mphMostly Cloudy
11:55 PM81.0 °F78.4 °F92 %29.87 in10.0 miENE (70°)13.8 mphMostly Cloudy
11:58 PM80.6 °F78.8 °F94 %29.87 in10.0 miEast (80°)16.1 mphMostly Cloudy
Hourly data recorded from PGUA, located miles away from Mangilao, Guam







STORIES FROM OUR PARTNERS